Year,Month,Day,Hour,Minute,Value (Times are PST for temperature in C)
2016,04,19,00,00,13.30
2016,04,19,00,01,13.30
2016,04,19,00,02,13.20
2016,04,19,00,03,13.20
2016,04,19,00,04,13.20
2016,04,19,00,05,13.20
2016,04,19,00,06,13.20
2016,04,19,00,07,13.20
2016,04,19,00,08,13.10
2016,04,19,00,09,13.10
2016,04,19,00,10,13.10
2016,04,19,00,11,13.10
2016,04,19,00,12,13.00
2016,04,19,00,13,13.00
2016,04,19,00,14,12.90
2016,04,19,00,15,12.90
2016,04,19,00,16,12.90
2016,04,19,00,17,12.90
2016,04,19,00,18,12.90
2016,04,19,00,19,12.80
2016,04,19,00,20,12.80
2016,04,19,00,21,12.80
2016,04,19,00,22,12.80
2016,04,19,00,23,12.80
2016,04,19,00,24,12.80
2016,04,19,00,26,12.70
2016,04,19,00,27,12.70
2016,04,19,00,28,12.70
2016,04,19,00,29,12.70
2016,04,19,00,30,12.70
2016,04,19,00,31,12.60
2016,04,19,00,32,12.60
2016,04,19,00,33,12.60
2016,04,19,00,34,12.60
2016,04,19,00,35,12.60
2016,04,19,00,36,12.60
2016,04,19,00,37,12.50
2016,04,19,00,38,12.50
2016,04,19,00,39,12.50
2016,04,19,00,40,12.40
2016,04,19,00,41,12.40
2016,04,19,00,42,12.40
2016,04,19,00,43,12.40
2016,04,19,00,44,12.40
2016,04,19,00,45,12.40
2016,04,19,00,46,12.30
2016,04,19,00,47,12.30
2016,04,19,00,48,12.30
2016,04,19,00,49,12.30
2016,04,19,00,50,12.30
2016,04,19,00,51,12.30
2016,04,19,00,52,12.30
2016,04,19,00,53,12.20
2016,04,19,00,54,12.20
2016,04,19,00,55,12.20
2016,04,19,00,56,12.20
2016,04,19,00,57,12.20
2016,04,19,00,58,12.20
2016,04,19,01,00,12.20
2016,04,19,01,01,12.10
2016,04,19,01,02,12.10
2016,04,19,01,03,12.10
2016,04,19,01,04,12.10
2016,04,19,01,05,12.10
2016,04,19,01,06,12.10
2016,04,19,01,07,12.10
2016,04,19,01,08,12.00
2016,04,19,01,09,12.00
2016,04,19,01,10,12.00
2016,04,19,01,11,12.00
2016,04,19,01,12,12.00
2016,04,19,01,13,12.00
2016,04,19,01,14,11.90
2016,04,19,01,15,11.90
2016,04,19,01,16,11.90
2016,04,19,01,17,11.90
2016,04,19,01,18,11.90
2016,04,19,01,19,11.90
2016,04,19,01,20,11.90
2016,04,19,01,21,11.90
2016,04,19,01,22,11.90
2016,04,19,01,23,11.90
2016,04,19,01,24,11.90
2016,04,19,01,25,11.80
2016,04,19,01,26,11.80
2016,04,19,01,27,11.80
2016,04,19,01,28,11.80
2016,04,19,01,29,11.80
2016,04,19,01,30,11.80
2016,04,19,01,31,11.70
2016,04,19,01,32,11.70
2016,04,19,01,33,11.70
2016,04,19,01,34,11.70
2016,04,19,01,35,11.70
2016,04,19,01,36,11.70
2016,04,19,01,37,11.70
2016,04,19,01,38,11.60
2016,04,19,01,39,11.60
2016,04,19,01,40,11.60
2016,04,19,01,41,11.60
2016,04,19,01,42,11.60
2016,04,19,01,43,11.50
2016,04,19,01,44,11.50
2016,04,19,01,45,11.50
2016,04,19,01,46,11.50
2016,04,19,01,47,11.40
2016,04,19,01,48,11.40
2016,04,19,01,49,11.40
2016,04,19,01,50,11.40
2016,04,19,01,51,11.40
2016,04,19,01,52,11.40
2016,04,19,01,53,11.40
2016,04,19,01,54,11.40
2016,04,19,01,55,11.40
2016,04,19,01,56,11.40
2016,04,19,01,57,11.40
2016,04,19,01,59,11.30
2016,04,19,02,00,11.30
2016,04,19,02,01,11.30
2016,04,19,02,02,11.30
2016,04,19,02,03,11.30
2016,04,19,02,04,11.30
2016,04,19,02,05,11.20
2016,04,19,02,06,11.20
2016,04,19,02,07,11.20
2016,04,19,02,08,11.20
2016,04,19,02,09,11.20
2016,04,19,02,10,11.20
2016,04,19,02,11,11.20
2016,04,19,02,12,11.20
2016,04,19,02,13,11.20
2016,04,19,02,14,11.20
2016,04,19,02,15,11.20
2016,04,19,02,16,11.20
2016,04,19,02,17,11.20
2016,04,19,02,18,11.10
2016,04,19,02,19,11.10
2016,04,19,02,20,11.10
2016,04,19,02,21,11.10
2016,04,19,02,22,11.10
2016,04,19,02,23,11.10
2016,04,19,02,24,11.10
2016,04,19,02,25,11.10
2016,04,19,02,26,11.10
2016,04,19,02,27,11.10
2016,04,19,02,28,11.10
2016,04,19,02,29,11.00
2016,04,19,02,30,11.00
2016,04,19,02,31,11.00
2016,04,19,02,32,10.90
2016,04,19,02,33,10.90
2016,04,19,02,34,10.90
2016,04,19,02,35,10.90
2016,04,19,02,36,10.90
2016,04,19,02,37,10.90
2016,04,19,02,38,10.90
2016,04,19,02,39,10.90
2016,04,19,02,40,10.80
2016,04,19,02,41,10.80
2016,04,19,02,42,10.80
2016,04,19,02,45,10.80
2016,04,19,02,47,10.80
2016,04,19,02,48,10.80
2016,04,19,02,49,10.80
2016,04,19,02,50,10.80
2016,04,19,02,51,10.80
2016,04,19,02,52,10.70
2016,04,19,02,53,10.70
2016,04,19,02,54,10.70
2016,04,19,02,55,10.70
2016,04,19,02,56,10.70
2016,04,19,02,57,10.70
2016,04,19,02,58,10.70
2016,04,19,02,59,10.70
2016,04,19,03,00,10.60
2016,04,19,03,01,10.60
2016,04,19,03,02,10.60
2016,04,19,03,03,10.60
2016,04,19,03,04,10.60
2016,04,19,03,05,10.60
2016,04,19,03,06,10.60
2016,04,19,03,07,10.60
2016,04,19,03,08,10.60
2016,04,19,03,09,10.50
2016,04,19,03,10,10.50
2016,04,19,03,11,10.50
2016,04,19,03,12,10.40
2016,04,19,03,13,10.40
2016,04,19,03,14,10.40
2016,04,19,03,15,10.40
2016,04,19,03,16,10.40
2016,04,19,03,17,10.40
2016,04,19,03,18,10.40
2016,04,19,03,19,10.30
2016,04,19,03,20,10.30
2016,04,19,03,21,10.30
2016,04,19,03,22,10.30
2016,04,19,03,23,10.30
2016,04,19,03,24,10.30
2016,04,19,03,25,10.30
2016,04,19,03,26,10.30
2016,04,19,03,27,10.30
2016,04,19,03,28,10.30
2016,04,19,03,29,10.20
2016,04,19,03,30,10.20
2016,04,19,03,31,10.20
2016,04,19,03,32,10.20
2016,04,19,03,33,10.20
2016,04,19,03,34,10.20
2016,04,19,03,35,10.20
2016,04,19,03,36,10.20
2016,04,19,03,37,10.20
2016,04,19,03,38,10.20
2016,04,19,03,39,10.20
2016,04,19,03,40,10.20
2016,04,19,03,41,10.10
2016,04,19,03,42,10.10
2016,04,19,03,43,10.10
2016,04,19,03,44,10.10
2016,04,19,03,45,10.10
2016,04,19,03,46,10.10
2016,04,19,03,47,10.10
2016,04,19,03,48,10.10
2016,04,19,03,49,10.10
2016,04,19,03,50,10.00
2016,04,19,03,51,10.00
2016,04,19,03,52,10.00
2016,04,19,03,53,10.00
2016,04,19,03,54,10.00
2016,04,19,03,55,9.90
2016,04,19,03,56,9.90
2016,04,19,03,57,9.90
2016,04,19,03,58,9.90
2016,04,19,03,59,9.90
2016,04,19,04,00,9.90
2016,04,19,04,01,9.90
2016,04,19,04,02,9.80
2016,04,19,04,03,9.80
2016,04,19,04,05,9.80
2016,04,19,04,06,9.80
2016,04,19,04,07,9.80
2016,04,19,04,08,9.80
2016,04,19,04,09,9.80
2016,04,19,04,10,9.80
2016,04,19,04,11,9.70
2016,04,19,04,12,9.70
2016,04,19,04,13,9.70
2016,04,19,04,14,9.70
2016,04,19,04,15,9.70
2016,04,19,04,16,9.70
2016,04,19,04,17,9.70
2016,04,19,04,18,9.60
2016,04,19,04,19,9.60
2016,04,19,04,20,9.60
2016,04,19,04,21,9.60
2016,04,19,04,22,9.60
2016,04,19,04,23,9.60
2016,04,19,04,24,9.60
2016,04,19,04,25,9.60
2016,04,19,04,26,9.50
2016,04,19,04,27,9.50
2016,04,19,04,28,9.50
2016,04,19,04,29,9.50
2016,04,19,04,30,9.40
2016,04,19,04,31,9.40
2016,04,19,04,32,9.40
2016,04,19,04,33,9.40
2016,04,19,04,34,9.40
2016,04,19,04,35,9.40
2016,04,19,04,36,9.40
2016,04,19,04,37,9.40
2016,04,19,04,38,9.40
2016,04,19,04,39,9.30
2016,04,19,04,40,9.30
2016,04,19,04,41,9.30
2016,04,19,04,42,9.30
2016,04,19,04,43,9.30
2016,04,19,04,44,9.30
2016,04,19,04,45,9.30
2016,04,19,04,46,9.30
2016,04,19,04,47,9.30
2016,04,19,04,48,9.30
2016,04,19,04,49,9.30
2016,04,19,04,50,9.30
2016,04,19,04,51,9.30
2016,04,19,04,52,9.30
2016,04,19,04,53,9.30
2016,04,19,04,54,9.20
2016,04,19,04,56,9.20
2016,04,19,04,57,9.20
2016,04,19,04,58,9.20
2016,04,19,04,59,9.20
2016,04,19,05,00,9.20
2016,04,19,05,01,9.20
2016,04,19,05,02,9.20
2016,04,19,05,03,9.20
2016,04,19,05,05,9.20
2016,04,19,05,06,9.10
2016,04,19,05,07,9.10
2016,04,19,05,08,9.10
2016,04,19,05,09,9.10
2016,04,19,05,10,9.10
2016,04,19,05,11,9.10
2016,04,19,05,12,9.10
2016,04,19,05,13,9.10
2016,04,19,05,14,9.10
2016,04,19,05,15,9.10
2016,04,19,05,16,9.00
2016,04,19,05,17,9.00
2016,04,19,05,18,9.00
2016,04,19,05,19,9.00
2016,04,19,05,20,9.00
2016,04,19,05,21,8.90
2016,04,19,05,22,8.90
2016,04,19,05,23,8.90
2016,04,19,05,24,8.90
2016,04,19,05,25,8.90
2016,04,19,05,26,8.90
2016,04,19,05,27,8.90
2016,04,19,05,28,8.90
2016,04,19,05,29,8.90
2016,04,19,05,30,8.90
2016,04,19,05,31,8.80
2016,04,19,05,32,8.80
2016,04,19,05,33,8.80
2016,04,19,05,34,8.80
2016,04,19,05,35,8.80
2016,04,19,05,36,8.80
2016,04,19,05,37,8.80
2016,04,19,05,38,8.80
2016,04,19,05,39,8.80
2016,04,19,05,40,8.80
2016,04,19,05,41,8.80
2016,04,19,05,42,8.80
2016,04,19,05,43,8.80
2016,04,19,05,44,8.80
2016,04,19,05,45,8.80
2016,04,19,05,46,8.80
2016,04,19,05,47,8.80
2016,04,19,05,48,8.70
2016,04,19,05,49,8.70
2016,04,19,05,50,8.70
2016,04,19,05,51,8.70
2016,04,19,05,52,8.70
2016,04,19,05,53,8.70
2016,04,19,05,54,8.70
2016,04,19,05,55,8.70
2016,04,19,05,56,8.70
2016,04,19,05,57,8.70
2016,04,19,05,58,8.70
2016,04,19,05,59,8.70
2016,04,19,06,00,8.70
2016,04,19,06,01,8.60
2016,04,19,06,02,8.60
2016,04,19,06,03,8.60
2016,04,19,06,04,8.60
2016,04,19,06,05,8.60
2016,04,19,06,06,8.60
2016,04,19,06,07,8.60
2016,04,19,06,08,8.60
2016,04,19,06,09,8.60
2016,04,19,06,10,8.60
2016,04,19,06,11,8.60
2016,04,19,06,12,8.50
2016,04,19,06,13,8.50
2016,04,19,06,14,8.50
2016,04,19,06,15,8.50
2016,04,19,06,16,8.50
2016,04,19,06,17,8.50
2016,04,19,06,18,8.50
2016,04,19,06,19,8.50
2016,04,19,06,20,8.50
2016,04,19,06,21,8.50
2016,04,19,06,22,8.50
2016,04,19,06,23,8.40
2016,04,19,06,24,8.40
2016,04,19,06,25,8.40
2016,04,19,06,26,8.40
2016,04,19,06,27,8.40
2016,04,19,06,28,8.40
2016,04,19,06,29,8.40
2016,04,19,06,30,8.40
2016,04,19,06,31,8.40
2016,04,19,06,32,8.40
2016,04,19,06,33,8.40
2016,04,19,06,34,8.40
2016,04,19,06,35,8.40
2016,04,19,06,36,8.40
2016,04,19,06,37,8.40
2016,04,19,06,38,8.40
2016,04,19,06,39,8.40
2016,04,19,06,40,8.40
2016,04,19,06,41,8.40
2016,04,19,06,42,8.40
2016,04,19,06,43,8.40
2016,04,19,06,44,8.40
2016,04,19,06,45,8.40
2016,04,19,06,47,8.40
2016,04,19,06,48,8.40
2016,04,19,06,49,8.40
2016,04,19,06,50,8.50
2016,04,19,06,51,8.50
2016,04,19,06,52,8.40
2016,04,19,06,53,8.50
2016,04,19,06,54,8.40
2016,04,19,06,55,8.50
2016,04,19,06,56,8.50
2016,04,19,06,57,8.50
2016,04,19,06,58,8.50
2016,04,19,06,59,8.50
2016,04,19,07,00,8.50
2016,04,19,07,01,8.50
2016,04,19,07,02,8.50
2016,04,19,07,03,8.50
2016,04,19,07,04,8.50
2016,04,19,07,05,8.50
2016,04,19,07,06,8.50
2016,04,19,07,09,8.50
2016,04,19,07,11,8.50
2016,04,19,07,12,8.50
2016,04,19,07,13,8.50
2016,04,19,07,14,8.50
2016,04,19,07,15,8.50
2016,04,19,07,16,8.60
2016,04,19,07,17,8.60
2016,04,19,07,18,8.60
2016,04,19,07,19,8.60
2016,04,19,07,20,8.60
2016,04,19,07,21,8.60
2016,04,19,07,22,8.60
2016,04,19,07,23,8.60
2016,04,19,07,24,8.60
2016,04,19,07,25,8.60
2016,04,19,07,26,8.60
2016,04,19,07,27,8.70
2016,04,19,07,28,8.60
2016,04,19,07,29,8.70
2016,04,19,07,30,8.70
2016,04,19,07,31,8.70
2016,04,19,07,32,8.70
2016,04,19,07,33,8.70
2016,04,19,07,34,8.70
2016,04,19,07,35,8.70
2016,04,19,07,36,8.70
2016,04,19,07,37,8.70
2016,04,19,07,38,8.70
2016,04,19,07,39,8.80
2016,04,19,07,40,8.80
2016,04,19,07,41,8.80
2016,04,19,07,44,8.80
2016,04,19,07,46,8.90
2016,04,19,07,47,8.90
2016,04,19,07,48,8.90
2016,04,19,07,49,9.00
2016,04,19,07,50,9.00
2016,04,19,07,51,9.10
2016,04,19,07,52,9.10
2016,04,19,07,53,9.10
2016,04,19,07,54,9.10
2016,04,19,07,55,9.20
2016,04,19,07,56,9.20
2016,04,19,07,57,9.20
2016,04,19,07,58,9.20
2016,04,19,07,59,9.30
2016,04,19,08,00,9.30
2016,04,19,08,01,9.30
2016,04,19,08,02,9.30
2016,04,19,08,04,9.30
2016,04,19,08,05,9.40
2016,04,19,08,06,9.40
2016,04,19,08,07,9.40
2016,04,19,08,08,9.40
2016,04,19,08,09,9.50
2016,04,19,08,10,9.50
2016,04,19,08,11,9.60
2016,04,19,08,12,9.60
2016,04,19,08,13,9.60
2016,04,19,08,14,9.70
2016,04,19,08,15,9.70
2016,04,19,08,16,9.70
2016,04,19,08,17,9.80
2016,04,19,08,18,9.80
2016,04,19,08,19,9.80
2016,04,19,08,20,9.90
2016,04,19,08,21,9.90
2016,04,19,08,22,9.90
2016,04,19,08,23,9.90
2016,04,19,08,24,10.00
2016,04,19,08,25,10.10
2016,04,19,08,26,10.10
2016,04,19,08,27,10.10
2016,04,19,08,28,10.20
2016,04,19,08,29,10.20
2016,04,19,08,30,10.30
2016,04,19,08,31,10.30
2016,04,19,08,32,10.30
2016,04,19,08,33,10.40
2016,04,19,08,34,10.40
2016,04,19,08,35,10.50
2016,04,19,08,36,10.50
2016,04,19,08,37,10.60
2016,04,19,08,38,10.60
2016,04,19,08,39,10.70
2016,04,19,08,40,10.70
2016,04,19,08,41,10.80
2016,04,19,08,42,10.80
2016,04,19,08,43,10.80
2016,04,19,08,44,10.90
2016,04,19,08,45,10.90
2016,04,19,08,46,11.00
2016,04,19,08,47,11.10
2016,04,19,08,48,11.10
2016,04,19,08,49,11.10
2016,04,19,08,50,11.20
2016,04,19,08,51,11.20
2016,04,19,08,52,11.30
2016,04,19,08,53,11.30
2016,04,19,08,54,11.40
2016,04,19,08,55,11.40
2016,04,19,08,56,11.50
2016,04,19,08,57,11.60
2016,04,19,08,58,11.60
2016,04,19,08,59,11.70
2016,04,19,09,00,11.70
2016,04,19,09,01,11.80
2016,04,19,09,02,11.80
2016,04,19,09,04,11.90
2016,04,19,09,05,11.90
2016,04,19,09,06,11.90
2016,04,19,09,07,11.90
2016,04,19,09,08,12.00
2016,04,19,09,09,12.10
2016,04,19,09,10,12.10
2016,04,19,09,11,12.20
2016,04,19,09,12,12.20
2016,04,19,09,13,12.30
2016,04,19,09,14,12.30
2016,04,19,09,15,12.40
2016,04,19,09,16,12.50
2016,04,19,09,17,12.60
2016,04,19,09,18,12.70
2016,04,19,09,19,12.70
2016,04,19,09,20,12.80
2016,04,19,09,21,12.90
2016,04,19,09,22,12.90
2016,04,19,09,23,13.00
2016,04,19,09,24,13.10
2016,04,19,09,25,13.20
2016,04,19,09,26,13.20
2016,04,19,09,27,13.30
2016,04,19,09,28,13.30
2016,04,19,09,29,13.40
2016,04,19,09,30,13.40
2016,04,19,09,31,13.40
2016,04,19,09,32,13.40
2016,04,19,09,34,13.40
2016,04,19,09,35,13.50
2016,04,19,09,36,13.60
2016,04,19,09,37,13.60
2016,04,19,09,38,13.60
2016,04,19,09,39,13.70
2016,04,19,09,40,13.70
2016,04,19,09,41,13.80
2016,04,19,09,42,13.90
2016,04,19,09,43,13.90
2016,04,19,09,44,14.10
2016,04,19,09,45,14.10
2016,04,19,09,46,14.20
2016,04,19,09,47,14.30
2016,04,19,09,48,14.40
2016,04,19,09,49,14.50
2016,04,19,09,50,14.60
2016,04,19,09,51,14.70
2016,04,19,09,52,14.70
2016,04,19,09,53,14.80
2016,04,19,09,54,14.80
2016,04,19,09,55,14.90
2016,04,19,09,56,15.10
2016,04,19,09,57,15.10
2016,04,19,09,58,15.20
2016,04,19,09,59,15.30
2016,04,19,10,00,15.30
2016,04,19,10,01,15.40
2016,04,19,10,02,15.40
2016,04,19,10,03,15.60
2016,04,19,10,04,15.60
2016,04,19,10,05,15.70
2016,04,19,10,06,15.70
2016,04,19,10,07,15.80
2016,04,19,10,08,15.90
2016,04,19,10,09,15.90
2016,04,19,10,10,15.90
2016,04,19,10,11,15.90
2016,04,19,10,12,15.90
2016,04,19,10,13,15.90
2016,04,19,10,14,15.90
2016,04,19,10,15,16.00
2016,04,19,10,16,16.10
2016,04,19,10,17,16.20
2016,04,19,10,18,16.20
2016,04,19,10,19,16.30
2016,04,19,10,20,16.30
2016,04,19,10,21,16.40
2016,04,19,10,22,16.50
2016,04,19,10,23,16.60
2016,04,19,10,24,16.60
2016,04,19,10,25,16.60
2016,04,19,10,26,16.60
2016,04,19,10,27,16.60
2016,04,19,10,28,16.60
2016,04,19,10,29,16.70
2016,04,19,10,30,16.70
2016,04,19,10,31,16.70
2016,04,19,10,32,16.80
2016,04,19,10,33,16.80
2016,04,19,10,34,16.90
2016,04,19,10,35,16.90
2016,04,19,10,36,17.00
2016,04,19,10,37,17.10
2016,04,19,10,38,17.20
2016,04,19,10,39,17.20
2016,04,19,10,40,17.30
2016,04,19,10,41,17.40
2016,04,19,10,42,17.40
2016,04,19,10,43,17.60
2016,04,19,10,44,17.60
2016,04,19,10,45,17.70
2016,04,19,10,46,17.70
2016,04,19,10,47,17.80
2016,04,19,10,48,17.80
2016,04,19,10,49,17.80
2016,04,19,10,50,17.80
2016,04,19,10,51,17.90
2016,04,19,10,52,17.90
2016,04,19,10,53,17.90
2016,04,19,10,54,18.00
2016,04,19,10,55,18.10
2016,04,19,10,56,18.20
2016,04,19,10,57,18.20
2016,04,19,10,58,18.30
2016,04,19,10,59,18.40
2016,04,19,11,00,18.40
2016,04,19,11,01,18.40
2016,04,19,11,02,18.40
2016,04,19,11,03,18.40
2016,04,19,11,04,18.30
2016,04,19,11,05,18.30
2016,04,19,11,06,18.30
2016,04,19,11,07,18.40
2016,04,19,11,08,18.40
2016,04,19,11,09,18.40
2016,04,19,11,10,18.40
2016,04,19,11,11,18.50
2016,04,19,11,12,18.40
2016,04,19,11,13,18.50
2016,04,19,11,14,18.40
2016,04,19,11,15,18.50
2016,04,19,11,16,18.60
2016,04,19,11,17,18.60
2016,04,19,11,18,18.70
2016,04,19,11,19,18.80
2016,04,19,11,20,18.80
2016,04,19,11,21,18.90
2016,04,19,11,22,19.10
2016,04,19,11,23,19.20
2016,04,19,11,24,19.30
2016,04,19,11,25,19.40
2016,04,19,11,26,19.50
2016,04,19,11,27,19.50
2016,04,19,11,28,19.60
2016,04,19,11,29,19.60
2016,04,19,11,30,19.70
2016,04,19,11,31,19.70
2016,04,19,11,32,19.70
2016,04,19,11,33,19.80
2016,04,19,11,34,19.80
2016,04,19,11,35,19.90
2016,04,19,11,36,20.00
2016,04,19,11,37,20.10
2016,04,19,11,38,20.10
2016,04,19,11,39,20.10
2016,04,19,11,40,20.10
2016,04,19,11,41,20.10
2016,04,19,11,42,20.10
2016,04,19,11,43,20.10
2016,04,19,11,44,20.10
2016,04,19,11,45,20.20
2016,04,19,11,46,20.20
2016,04,19,11,47,20.20
2016,04,19,11,48,20.20
2016,04,19,11,49,20.30
2016,04,19,11,50,20.30
2016,04,19,11,51,20.30
2016,04,19,11,52,20.30
2016,04,19,11,53,20.30
2016,04,19,11,54,20.30
2016,04,19,11,55,20.30
2016,04,19,11,56,20.30
2016,04,19,11,57,20.30
2016,04,19,11,58,20.30
2016,04,19,11,59,20.30
2016,04,19,12,00,20.40
2016,04,19,12,01,20.40
2016,04,19,12,02,20.40
2016,04,19,12,03,20.50
2016,04,19,12,04,20.50
2016,04,19,12,05,20.60
2016,04,19,12,06,20.60
2016,04,19,12,07,20.70
2016,04,19,12,08,20.80
2016,04,19,12,09,20.80
2016,04,19,12,10,20.90
2016,04,19,12,11,20.90
2016,04,19,12,12,20.90
2016,04,19,12,13,21.10
2016,04,19,12,14,21.10
2016,04,19,12,15,21.20
2016,04,19,12,16,21.20
2016,04,19,12,17,21.20
2016,04,19,12,18,21.20
2016,04,19,12,19,21.30
2016,04,19,12,20,21.30
2016,04,19,12,21,21.40
2016,04,19,12,22,21.40
2016,04,19,12,23,21.50
2016,04,19,12,24,21.50
2016,04,19,12,25,21.60
2016,04,19,12,26,21.60
2016,04,19,12,27,21.60
2016,04,19,12,28,21.60
2016,04,19,12,29,21.70
2016,04,19,12,30,21.70
2016,04,19,12,31,21.70
2016,04,19,12,32,21.70
2016,04,19,12,33,21.70
2016,04,19,12,34,21.80
2016,04,19,12,35,21.80
2016,04,19,12,36,21.80
2016,04,19,12,37,21.90
2016,04,19,12,38,22.00
2016,04,19,12,39,22.00
2016,04,19,12,40,22.10
2016,04,19,12,41,22.10
2016,04,19,12,42,22.10
2016,04,19,12,43,22.10
2016,04,19,12,44,22.10
2016,04,19,12,45,22.10
2016,04,19,12,46,22.10
2016,04,19,12,47,22.20
2016,04,19,12,48,22.30
2016,04,19,12,49,22.30
2016,04,19,12,50,22.30
2016,04,19,12,51,22.40
2016,04,19,12,52,22.40
2016,04,19,12,53,22.50
2016,04,19,12,54,22.60
2016,04,19,12,55,22.60
2016,04,19,12,56,22.70
2016,04,19,12,57,22.70
2016,04,19,12,58,22.80
2016,04,19,12,59,22.80
2016,04,19,13,00,22.90
2016,04,19,13,01,22.90
2016,04,19,13,02,22.90
2016,04,19,13,03,23.00
2016,04,19,13,04,23.00
2016,04,19,13,05,23.00
2016,04,19,13,06,23.00
2016,04,19,13,07,22.90
2016,04,19,13,08,22.90
2016,04,19,13,09,22.90
2016,04,19,13,10,22.90
2016,04,19,13,11,22.90
2016,04,19,13,12,22.90
2016,04,19,13,13,22.80
2016,04,19,13,14,22.80
2016,04,19,13,15,22.80
2016,04,19,13,16,22.90
2016,04,19,13,17,22.90
2016,04,19,13,18,23.10
2016,04,19,13,19,23.20
2016,04,19,13,20,23.20
2016,04,19,13,21,23.30
2016,04,19,13,22,23.40
2016,04,19,13,23,23.50
2016,04,19,13,24,23.60
2016,04,19,13,25,23.60
2016,04,19,13,26,23.70
2016,04,19,13,27,23.70
2016,04,19,13,28,23.80
2016,04,19,13,29,23.80
2016,04,19,13,30,23.80
2016,04,19,13,31,23.90
2016,04,19,13,32,23.90
2016,04,19,13,33,24.00
2016,04,19,13,34,24.10
2016,04,19,13,35,24.20
2016,04,19,13,36,24.20
2016,04,19,13,37,24.20
2016,04,19,13,38,24.30
2016,04,19,13,39,24.30
2016,04,19,13,40,24.30
2016,04,19,13,41,24.30
2016,04,19,13,42,24.30
2016,04,19,13,43,24.30
2016,04,19,13,44,24.30
2016,04,19,13,45,24.30
2016,04,19,13,46,24.30
2016,04,19,13,47,24.30
2016,04,19,13,48,24.30
2016,04,19,13,49,24.30
2016,04,19,13,50,24.40
2016,04,19,13,51,24.40
2016,04,19,13,52,24.40
2016,04,19,13,53,24.50
2016,04,19,13,54,24.60
2016,04,19,13,55,24.60
2016,04,19,13,56,24.70
2016,04,19,13,57,24.70
2016,04,19,13,58,24.70
2016,04,19,13,59,24.80
2016,04,19,14,00,24.80
2016,04,19,14,01,24.80
2016,04,19,14,02,24.90
2016,04,19,14,03,24.90
2016,04,19,14,04,24.90
2016,04,19,14,05,25.00
2016,04,19,14,06,25.10
2016,04,19,14,07,25.10
2016,04,19,14,08,25.10
2016,04,19,14,09,25.20
2016,04,19,14,10,25.20
2016,04,19,14,11,25.20
2016,04,19,14,12,25.10
2016,04,19,14,13,25.20
2016,04,19,14,14,25.10
2016,04,19,14,15,25.10
2016,04,19,14,16,25.10
2016,04,19,14,17,25.10
2016,04,19,14,18,25.10
2016,04,19,14,19,25.10
2016,04,19,14,20,25.10
2016,04,19,14,21,25.10
2016,04,19,14,22,25.10
2016,04,19,14,23,25.00
2016,04,19,14,24,24.90
2016,04,19,14,25,24.90
2016,04,19,14,26,24.90
2016,04,19,14,27,24.80
2016,04,19,14,28,24.80
2016,04,19,14,29,24.80
2016,04,19,14,30,24.80
2016,04,19,14,31,24.70
2016,04,19,14,32,24.70
2016,04,19,14,33,24.70
2016,04,19,14,34,24.70
2016,04,19,14,35,24.70
2016,04,19,14,36,24.70
2016,04,19,14,37,24.70
2016,04,19,14,38,24.70
2016,04,19,14,39,24.80
2016,04,19,14,40,24.80
2016,04,19,14,41,24.90
2016,04,19,14,42,24.90
2016,04,19,14,43,25.00
2016,04,19,14,44,25.00
2016,04,19,14,45,25.00
2016,04,19,14,46,25.00
2016,04,19,14,47,24.90
2016,04,19,14,48,24.90
2016,04,19,14,49,24.90
2016,04,19,14,50,24.90
2016,04,19,14,51,24.80
2016,04,19,14,52,24.80
2016,04,19,14,53,24.80
2016,04,19,14,54,24.80
2016,04,19,14,55,24.80
2016,04,19,14,56,24.80
2016,04,19,14,57,24.80
2016,04,19,14,58,24.90
2016,04,19,14,59,24.90
2016,04,19,15,00,25.10
2016,04,19,15,01,25.10
2016,04,19,15,02,25.20
2016,04,19,15,03,25.20
2016,04,19,15,04,25.20
2016,04,19,15,05,25.20
2016,04,19,15,06,25.20
2016,04,19,15,07,25.20
2016,04,19,15,08,25.30
2016,04,19,15,09,25.30
2016,04,19,15,10,25.40
2016,04,19,15,11,25.40
2016,04,19,15,12,25.50
2016,04,19,15,13,25.60
2016,04,19,15,14,25.70
2016,04,19,15,15,25.80
2016,04,19,15,16,25.80
2016,04,19,15,17,25.90
2016,04,19,15,18,26.00
2016,04,19,15,19,26.10
2016,04,19,15,20,26.10
2016,04,19,15,21,26.20
2016,04,19,15,22,26.20
2016,04,19,15,23,26.20
2016,04,19,15,24,26.20
2016,04,19,15,25,26.20
2016,04,19,15,26,26.20
2016,04,19,15,27,26.20
2016,04,19,15,28,26.20
2016,04,19,15,29,26.20
2016,04,19,15,30,26.20
2016,04,19,15,31,26.20
2016,04,19,15,32,26.20
2016,04,19,15,33,26.20
2016,04,19,15,34,26.20
2016,04,19,15,35,26.20
2016,04,19,15,36,26.30
2016,04,19,15,37,26.30
2016,04,19,15,38,26.30
2016,04,19,15,39,26.40
2016,04,19,15,40,26.40
2016,04,19,15,41,26.40
2016,04,19,15,42,26.40
2016,04,19,15,43,26.50
2016,04,19,15,44,26.40
2016,04,19,15,45,26.40
2016,04,19,15,46,26.30
2016,04,19,15,47,26.30
2016,04,19,15,48,26.30
2016,04,19,15,49,26.30
2016,04,19,15,50,26.30
2016,04,19,15,51,26.30
2016,04,19,15,52,26.30
2016,04,19,15,53,26.40
2016,04,19,15,55,26.40
2016,04,19,15,56,26.40
2016,04,19,15,57,26.40
2016,04,19,15,58,26.40
2016,04,19,15,59,26.50
2016,04,19,16,00,26.50
2016,04,19,16,01,26.60
2016,04,19,16,02,26.60
2016,04,19,16,03,26.60
2016,04,19,16,04,26.70
2016,04,19,16,05,26.70
2016,04,19,16,06,26.70
2016,04,19,16,07,26.70
2016,04,19,16,08,26.70
2016,04,19,16,09,26.70
2016,04,19,16,10,26.70
2016,04,19,16,11,26.70
2016,04,19,16,12,26.80
2016,04,19,16,13,26.80
2016,04,19,16,14,26.80
2016,04,19,16,15,26.80
2016,04,19,16,16,26.80
2016,04,19,16,17,26.80
2016,04,19,16,18,26.80
2016,04,19,16,19,26.80
2016,04,19,16,20,26.80
2016,04,19,16,21,26.80
2016,04,19,16,22,26.80
2016,04,19,16,23,26.80
2016,04,19,16,24,26.80
2016,04,19,16,25,26.90
2016,04,19,16,26,26.90
2016,04,19,16,27,26.90
2016,04,19,16,28,27.00
2016,04,19,16,29,27.10
2016,04,19,16,30,27.10
2016,04,19,16,31,27.20
2016,04,19,16,32,27.20
2016,04,19,16,33,27.30
2016,04,19,16,34,27.30
2016,04,19,16,35,27.30
2016,04,19,16,36,27.20
2016,04,19,16,37,27.20
2016,04,19,16,38,27.20
2016,04,19,16,39,27.20
2016,04,19,16,40,27.20
2016,04,19,16,41,27.20
2016,04,19,16,42,27.20
2016,04,19,16,43,27.20
2016,04,19,16,44,27.20
2016,04,19,16,45,27.20
2016,04,19,16,46,27.20
2016,04,19,16,47,27.20
2016,04,19,16,48,27.20
2016,04,19,16,49,27.30
2016,04,19,16,50,27.30
2016,04,19,16,51,27.30
2016,04,19,16,52,27.40
2016,04,19,16,53,27.40
2016,04,19,16,54,27.40
2016,04,19,16,55,27.50
2016,04,19,16,56,27.50
2016,04,19,16,57,27.60
2016,04,19,16,58,27.60
2016,04,19,16,59,27.60
2016,04,19,17,00,27.70
2016,04,19,17,01,27.70
2016,04,19,17,02,27.70
2016,04,19,17,03,27.70
2016,04,19,17,04,27.70
2016,04,19,17,05,27.70
2016,04,19,17,06,27.70
2016,04,19,17,07,27.70
2016,04,19,17,08,27.70
2016,04,19,17,09,27.70
2016,04,19,17,10,27.70
2016,04,19,17,11,27.80
2016,04,19,17,12,27.80
2016,04,19,17,13,27.80
2016,04,19,17,14,27.80
2016,04,19,17,15,27.80
2016,04,19,17,16,27.70
2016,04,19,17,17,27.70
2016,04,19,17,18,27.60
2016,04,19,17,19,27.60
2016,04,19,17,20,27.60
2016,04,19,17,21,27.50
2016,04,19,17,22,27.50
2016,04,19,17,23,27.50
2016,04,19,17,24,27.50
2016,04,19,17,25,27.50
2016,04,19,17,26,27.50
2016,04,19,17,27,27.50
2016,04,19,17,28,27.50
2016,04,19,17,29,27.50
2016,04,19,17,30,27.50
2016,04,19,17,31,27.50
2016,04,19,17,32,27.50
2016,04,19,17,33,27.40
2016,04,19,17,34,27.40
2016,04,19,17,35,27.40
2016,04,19,17,36,27.40
2016,04,19,17,37,27.30
2016,04,19,17,38,27.30
2016,04,19,17,39,27.30
2016,04,19,17,40,27.30
2016,04,19,17,41,27.20
2016,04,19,17,42,27.20
2016,04,19,17,43,27.20
2016,04,19,17,44,27.20
2016,04,19,17,45,27.20
2016,04,19,17,46,27.20
2016,04,19,17,47,27.20
2016,04,19,17,48,27.20
2016,04,19,17,49,27.20
2016,04,19,17,50,27.20